Погода в Верхнем

Россия / Курганская область     54°53′59″N   64°16′22″E
темп.,
°C
ветер,
м/с
пор.,
м/с
влажн.,
%
обл.,
%
осадки,
мм/ч
давл.,
гПа
погр.,
м
14 августа, вс
вс1423:00+15ссз39660 0.0 1014145
02:00+12ссз37630 0.0 1016115
05:00+11ссз35720 0.0 101770
08:00+14сз47640 0.0 1019359
11:00+18сз67470 0.0 10191561
14:00+20ссз67405 0.0 10182162
17:00+20ссз673713 0.0 10182301
20:00+16ссз33571 0.0 101928
15 августа, пн
пн1523:00+13св226145 0.0 102010
02:00+11ссв2265100 0.0 102010
05:00+14с1155100 0.0 102118
08:00+15ссв2257100 0.0 1021141
11:00+17ссз234943 0.0 1022613
14:00+21сз353817 0.0 10212273
17:00+21ссз3441100 0.0 10201602
20:00+17з115175 0.0 102012
16 августа, вт
вт1623:00+16с3553100 0.0 1021125
02:00+15ссв3457100 0.0 102178
05:00+12с33655 0.0 102232
08:00+15сз46555 0.0 1022261
11:00+20сз564270 0.0 10211322
14:00+22сз8942100 0.0 10202463
17:00+20ссз584923 0.0 10201366
20:00+18зсз2255100 0.0 102021
17 августа, ср
ср1723:00+17ссз365666 0.0 1020121
02:00+12с476055 0.0 102195
05:00+10с3368100 0.0 102245
08:00+13сз3460100 0.0 1023239
11:00+17сз464669 0.0 10221062
14:00+17сз6747100 0.0 1021963
17:00+16сз585195 0.0 1021981
20:00+14ссз3753100 0.0 1020311
18 августа, чт
чт1823:00+12ссз3460100 0.0 102089
02:00+10ссз2371100 0.0 101938
05:00+10ссз357226 0.0 1019144
08:00+12с4666100 0.0 1020306
11:00+15с5656100 0.0 10191055
14:00+16ссз5646100 0.0 10191954
17:00+17с673523 0.0 10192267
20:00+12всв712595 0.0 1021510